TimeEDT,TemperatureF,Dew PointF,Humidity,Sea Level PressureIn,VisibilityMPH,Wind Direction,Wind SpeedMPH,Gust SpeedMPH,PrecipitationIn,Events,Conditions,WindDirDegrees,DateUTC
12:15 AM,48.2,44.2,86,30.14,10.0,Calm,Calm,-,N/A,,Clear,0,2013-09-15 04:15:00
12:35 AM,47.7,43.7,86,30.13,10.0,Calm,Calm,-,N/A,,Clear,0,2013-09-15 04:35:00
12:55 AM,47.7,44.1,87,30.13,10.0,Calm,Calm,-,N/A,,Clear,0,2013-09-15 04:55:00
1:15 AM,47.7,44.1,87,30.13,7.0,Calm,Calm,-,N/A,,Clear,0,2013-09-15 05:15:00
1:35 AM,47.7,44.1,87,30.13,5.0,Calm,Calm,-,N/A,,Clear,0,2013-09-15 05:35:00
1:55 AM,47.7,44.2,88,30.13,7.0,Calm,Calm,-,N/A,,Clear,0,2013-09-15 05:55:00
2:15 AM,47.7,44.2,88,30.14,10.0,Calm,Calm,-,N/A,,Clear,0,2013-09-15 06:15:00
2:35 AM,47.7,44.2,88,30.14,10.0,Calm,Calm,-,N/A,,Clear,0,2013-09-15 06:35:00
2:55 AM,47.7,44.2,88,30.14,10.0,Calm,Calm,-,N/A,,Clear,0,2013-09-15 06:55:00
3:15 AM,47.7,44.2,88,30.15,10.0,Calm,Calm,-,N/A,,Clear,0,2013-09-15 07:15:00
3:35 AM,47.7,44.2,88,30.14,10.0,Calm,Calm,-,N/A,,Clear,0,2013-09-15 07:35:00
3:55 AM,47.7,44.2,88,30.14,10.0,Calm,Calm,-,N/A,,Clear,0,2013-09-15 07:55:00
4:15 AM,47.7,44.2,88,30.15,10.0,Calm,Calm,-,N/A,,Clear,0,2013-09-15 08:15:00
4:35 AM,47.7,44.2,88,30.15,7.0,Calm,Calm,-,N/A,,Clear,0,2013-09-15 08:35:00
4:55 AM,47.5,44.1,88,30.15,7.0,Calm,Calm,-,N/A,,Clear,0,2013-09-15 08:55:00
5:15 AM,45.1,41.9,88,30.16,7.0,Calm,Calm,-,N/A,,Clear,0,2013-09-15 09:15:00
5:35 AM,45.1,41.9,88,30.16,7.0,Calm,Calm,-,N/A,,Clear,0,2013-09-15 09:35:00
5:55 AM,45.1,41.9,88,30.15,7.0,Calm,Calm,-,N/A,,Clear,0,2013-09-15 09:55:00
6:15 AM,45.1,41.9,88,30.16,10.0,Calm,Calm,-,N/A,,Clear,0,2013-09-15 10:15:00
6:35 AM,45.1,41.9,88,30.16,10.0,Calm,Calm,-,N/A,,Clear,0,2013-09-15 10:35:00
6:55 AM,45.1,41.9,88,30.16,7.0,Calm,Calm,-,N/A,,Clear,0,2013-09-15 10:55:00
7:15 AM,45.1,41.9,88,30.16,7.0,Calm,Calm,-,N/A,,Mostly Cloudy,0,2013-09-15 11:15:00
7:35 AM,45.1,41.9,88,30.16,5.0,Calm,Calm,-,N/A,,Scattered Clouds,0,2013-09-15 11:35:00
7:55 AM,45.1,41.9,88,30.16,5.0,Calm,Calm,-,N/A,,Clear,0,2013-09-15 11:55:00
8:15 AM,47.7,44.4,89,30.17,5.0,Calm,Calm,-,N/A,,Clear,0,2013-09-15 12:15:00
8:35 AM,47.7,44.2,88,30.17,7.0,Calm,Calm,-,N/A,,Clear,0,2013-09-15 12:35:00
8:55 AM,49.1,45.5,87,30.17,10.0,Calm,Calm,-,N/A,,Clear,0,2013-09-15 12:55:00
9:15 AM,52.7,49.1,88,30.17,10.0,Calm,Calm,-,N/A,,Clear,0,2013-09-15 13:15:00
9:35 AM,52.7,48.2,85,30.17,10.0,Calm,Calm,-,N/A,,Clear,0,2013-09-15 13:35:00
9:55 AM,55.4,49.3,80,30.17,10.0,Calm,Calm,-,N/A,,Clear,0,2013-09-15 13:55:00
10:15 AM,57.7,49.8,75,30.17,10.0,Calm,Calm,-,N/A,,Clear,0,2013-09-15 14:15:00
10:35 AM,59.0,48.4,68,30.17,10.0,Calm,Calm,-,N/A,,Clear,0,2013-09-15 14:35:00
10:55 AM,60.1,47.8,64,30.17,10.0,Calm,Calm,-,N/A,,Clear,0,2013-09-15 14:55:00
11:15 AM,62.6,47.1,57,30.17,10.0,Calm,Calm,-,N/A,,Clear,0,2013-09-15 15:15:00
11:35 AM,65.3,48.4,54,30.16,10.0,Calm,Calm,-,N/A,,Clear,0,2013-09-15 15:35:00
11:55 AM,67.6,48.0,49,30.16,10.0,Calm,Calm,-,N/A,,Clear,0,2013-09-15 15:55:00
12:15 PM,67.6,44.4,43,30.15,10.0,West,3.5,-,N/A,,Clear,280,2013-09-15 16:15:00
12:35 PM,67.6,38.8,35,30.14,10.0,SE,3.5,-,N/A,,Clear,140,2013-09-15 16:35:00
12:55 PM,69.3,39.9,34,30.13,10.0,South,3.5,-,N/A,,Clear,190,2013-09-15 16:55:00
1:15 PM,70.7,42.3,36,30.12,10.0,WSW,3.5,-,N/A,,Clear,250,2013-09-15 17:15:00
1:35 PM,72.7,44.4,36,30.12,10.0,WSW,4.6,-,N/A,,Clear,250,2013-09-15 17:35:00
1:55 PM,72.7,43.3,35,30.11,10.0,SW,11.5,-,N/A,,Clear,230,2013-09-15 17:55:00
2:15 PM,72.7,41.9,33,30.11,10.0,SW,10.4,-,N/A,,Clear,220,2013-09-15 18:15:00
2:35 PM,72.7,41.5,32,30.10,10.0,SSW,8.1,-,N/A,,Clear,210,2013-09-15 18:35:00
2:55 PM,74.8,43.9,33,30.09,10.0,SW,6.9,-,N/A,,Clear,220,2013-09-15 18:55:00
3:15 PM,75.2,42.8,31,30.08,10.0,South,9.2,-,N/A,,Clear,180,2013-09-15 19:15:00
3:35 PM,75.2,43.3,32,30.08,10.0,SW,9.2,-,N/A,,Clear,230,2013-09-15 19:35:00
3:55 PM,75.2,39.4,27,30.07,10.0,SW,13.8,-,N/A,,Clear,230,2013-09-15 19:55:00
4:15 PM,75.2,41.4,30,30.07,10.0,WSW,10.4,-,N/A,,Clear,250,2013-09-15 20:15:00
4:35 PM,75.2,42.8,31,30.06,10.0,WSW,12.7,17.3,N/A,,Clear,240,2013-09-15 20:35:00
4:55 PM,75.2,43.7,32,30.05,10.0,SW,12.7,16.1,N/A,,Clear,220,2013-09-15 20:55:00
5:15 PM,75.2,45.5,35,30.05,10.0,WSW,8.1,12.7,N/A,,Clear,240,2013-09-15 21:15:00
5:35 PM,75.2,41.9,30,30.04,10.0,SW,13.8,-,N/A,,Clear,230,2013-09-15 21:35:00
5:55 PM,75.2,43.7,32,30.05,10.0,SW,10.4,-,N/A,,Clear,230,2013-09-15 21:55:00
6:15 PM,75.0,43.2,32,30.05,10.0,SW,11.5,-,N/A,,Scattered Clouds,230,2013-09-15 22:15:00
6:35 PM,72.7,43.5,35,30.05,10.0,SW,11.5,-,N/A,,Mostly Cloudy,230,2013-09-15 22:35:00
6:55 PM,72.7,43.5,35,30.05,10.0,WSW,9.2,-,N/A,,Overcast,240,2013-09-15 22:55:00
7:15 PM,72.7,45.5,38,30.06,10.0,WSW,5.8,-,N/A,,Mostly Cloudy,250,2013-09-15 23:15:00
7:35 PM,72.7,47.8,41,30.06,10.0,SW,4.6,-,N/A,,Mostly Cloudy,230,2013-09-15 23:35:00
7:55 PM,72.7,50.5,46,30.06,10.0,West,3.5,-,N/A,,Overcast,260,2013-09-15 23:55:00
8:15 PM,70.3,49.6,48,30.06,10.0,Calm,Calm,-,N/A,,Overcast,0,2013-09-16 00:15:00
8:35 PM,69.6,50.7,51,30.07,10.0,Calm,Calm,-,N/A,,Overcast,0,2013-09-16 00:35:00
8:55 PM,67.6,55.9,66,30.07,10.0,North,3.5,-,N/A,,Overcast,360,2013-09-16 00:55:00
9:15 PM,65.3,55.2,70,30.08,10.0,Calm,Calm,-,N/A,,Mostly Cloudy,0,2013-09-16 01:15:00
9:35 PM,65.3,56.1,72,30.08,10.0,Calm,Calm,-,N/A,,Overcast,0,2013-09-16 01:35:00
9:55 PM,65.5,54.3,67,30.08,10.0,Calm,Calm,-,N/A,,Mostly Cloudy,0,2013-09-16 01:55:00
10:15 PM,65.3,55.6,71,30.08,10.0,Calm,Calm,-,N/A,,Mostly Cloudy,0,2013-09-16 02:15:00
10:35 PM,65.3,55.8,71,30.08,10.0,Calm,Calm,-,N/A,,Overcast,0,2013-09-16 02:35:00
10:55 PM,62.6,54.5,75,30.08,10.0,Calm,Calm,-,N/A,Rain,Rain,0,2013-09-16 02:55:00
11:15 PM,62.6,54.3,74,30.09,7.0,North,5.8,-,N/A,Rain,Light Rain,10,2013-09-16 03:15:00
11:35 PM,61.0,53.6,77,30.10,10.0,NNE,5.8,-,N/A,,Overcast,30,2013-09-16 03:35:00
11:55 PM,60.4,53.1,77,30.11,10.0,NNE,10.4,-,N/A,,Overcast,20,2013-09-16 03:55:00